2016-057H

Last updated on Thu Oct 27 2016 17:17:21 GMT+0000 (Coordinated Universal Time)

1 41834U 16057H 16301.39350995 .00018570 00000-0 20343-3 0 9999 2 41834 42.7854 306.7164 0007283 21.5342 114.1719 15.62885723 625

Satellite not in orbit